User: anonymous   Login
Location: Bishop's University Astronomical Observatory
(45.3661°N, 71.8475°W)
Time: 12:38:04
(UTC-04:00)
Language:

Meteor 2-5 Rocket - Orbit

View from above orbital plane
View from above orbital plane
View from above satellite
View from above satellite

Ground track
Ground track

The orbit data is extracted from the following two-line orbital elements,

1 11608U 79095B   17147.74587528 +.00000000 +00000-0 -70153-5 0  9994
2 11608 081.2152 230.8433 0053788 219.3007 140.4253 14.06115325926951
Epoch (UTC): 27 May 2017 17:54:03
Eccentricity: 0.0053788
inclination: 81.2152°
perigee height: 833 km
apogee height: 911 km
right ascension of ascending node: 230.8433°
argument of perigee: 219.3007°
revolutions per day: 14.06115325
mean anomaly at epoch: 140.4253°
orbit number at epoch: 92695

The dashed part of the orbit path shows where the satellite is in the earth's shadow,  

DLR